Regional Weather Roundup
Issued by NWS

Home | Current Version | Previous Version | Graphics & Text | Print | Product List | Glossary Off
Versions: 1 2 3 4 5 6 7 8 9 10 11 12 13 14 15 16 17 18 19 20 21 22 23 24 25 26 27 28 29 30 31 32 33 34 35 36 37 38 39 40 41 42 43 44 45 46 47 48 49 50

000
ASUS43 KDMX 010207
RWRIA

WEATHER ROUNDUP FOR IOWA
NATIONAL WEATHER SERVICE DES MOINES IA
900 PM CDT FRI JUL 31 2015

NOTE: "FAIR" INDICATES FEW OR NO CLOUDS BELOW 12,000 FEET WITH NO
SIGNIFICANT WEATHER AND/OR OBSTRUCTIONS TO VISIBILITY.

* - THESE STATIONS ARE NOT NWS STATIONS...THUS NOT UNDER NWS
QUALITY CONTROL.  THEY ALSO DO NOT REPORT WEATHER SUCH
AS PRECIPITATION OR FOG.

IAZ001>003-012>014-020>022-031>034-043>046-010300-
   NORTHWEST IOWA

CITY           SKY/WX    TMP DP  RH WIND       PRES   REMARKS
CARROLL *      CLEAR     73  70  88 E5        30.05S
CHEROKEE *     CLEAR     72  66  83 CALM      30.05S
DENISON *      CLEAR     75  70  83 CALM      30.03S
LE MARS *      CLEAR     73  68  83 CALM      30.05S
ORANGE CITY *  CLEAR     75  63  64 CALM      30.06F
SHELDON *      CLEAR     70  66  88 CALM      30.05S
SIOUX CITY     CLEAR     80  68  66 NE8       30.03S HX  83
SPENCER        CLEAR     71  63  75 SW5       30.06S
STORM LAKE *   CLEAR     70  66  88 E6        30.07S
$$

IAZ055>058-069>071-079>083-090>094-010300-
   SOUTHWEST IOWA

CITY           SKY/WX    TMP DP  RH WIND       PRES   REMARKS
ATLANTIC *     MOCLDY    79  73  83 CALM      30.04R HX  82
AUDUBON *      CLEAR     73  70  88 CALM      30.06S
CLARINDA *     PTCLDY    75  68  78 VRB5      30.06R
COUNCIL BLFS * PTCLDY    79  72  78 S5        30.05R HX  82
CRESTON *      CLEAR     70  66  88 CALM      30.06S
HARLAN  *      MOCLDY    77  77 100 NE6       30.07R
LAMONI         CLOUDY    73  63  70 NE3       30.05S
RED OAK *      MOCLDY    73  70  88 SW9       30.06R
SHENANDOAH *   CLOUDY    75  72  88 NW3       30.05R
$$

IAZ047>049-059>061-072>074-084-010300-
   CENTRAL IOWA

CITY           SKY/WX    TMP DP  RH WIND       PRES   REMARKS
AMES           CLEAR     70  65  84 S3        30.04F
ANKENY *       CLEAR     73  68  83 NE3       30.04S
CHARITON *     PTCLDY    77  70  78 NE5       30.04R
DES MOINES     PTCLDY    81  61  50 E6        30.03S HX  82
GRINNELL*      CLEAR     73  61  64 CALM      30.06S
KNOXVILLE *    MOCLDY    79  64  61 NE5       30.03S HX  81
MARSHALLTOWN   CLEAR     73  64  73 W3        30.04S
PELLA *        PTCLDY    73  70  88 CALM      30.05R
PERRY *          N/A     73  70  88 CALM      30.05R
$$

IAZ004>006-015-016-023>025-035-036-010300-
   NORTH CENTRAL IOWA

CITY           SKY/WX    TMP DP  RH WIND       PRES   REMARKS
ALGONA *       CLEAR     72  64  78 CALM      30.06S
CLARION *      CLEAR     70  64  83 CALM      30.05S
ESTHERVILLE    CLEAR     69  62  78 S3        30.05S
FORT DODGE *   CLEAR     70  61  73 CALM      30.06S
MASON CITY     CLEAR     70  62  76 W6        30.06S
FOREST CITY *  CLEAR     68  61  77 CALM      30.05R
IOWA FALLS *     N/A     70  64  83 CALM      30.06S
$$

IAZ007>011-017>019-026>030-037>042-050>054-066-010300-
   NORTHEAST IOWA

CITY           SKY/WX    TMP DP  RH WIND       PRES   REMARKS
CEDAR RAPIDS   CLEAR     68  64  87 W6        30.02F
CHARLES CITY * CLEAR     68  64  88 W5        30.04S
CLINTON *      CLEAR     66  59  77 W9        30.03S
DECORAH *      CLEAR     72  59  64 CALM      30.01S
DUBUQUE        CLEAR     69  57  65 W6        30.01S
MONTICELLO *   CLEAR     64  63  94 CALM      30.01S
OELWEIN *        N/A     68  63  83 W3        30.04S
WATERLOO       CLEAR     72  61  68 W6        30.02S
$$

IAZ064-065-067-068-078-010300-
   EAST CENTRAL IOWA

CITY           SKY/WX    TMP DP  RH WIND       PRES   REMARKS
DAVENPORT      CLEAR     68  63  84 W8        30.02S
IOWA CITY      CLEAR     72  62  71 W6        30.03F
MT. PLEASANT * PTCLDY    77  63  61 N3        30.03S
MUSCATINE *    CLEAR     73  64  73 W3        30.02S
QUAD CITIES    CLEAR     76  56  49 NW8       30.01S
$$

IAZ062-063-075>077-085>089-095>099-010300-
   SOUTHEAST IOWA

CITY           SKY/WX    TMP DP  RH WIND       PRES   REMARKS
BURLINGTON     MOCLDY    75  66  73 N7        30.03R
FAIRFIELD *    PTCLDY    73  66  78 NE6       30.04R
FORT MADISON * PTCLDY    75  66  73 CALM      30.03S
KEOKUK *       CLEAR     77  70  78 NE3       30.02R
OSKALOOSA *      N/A     73  68  83 N3        30.04S
CENTERVILLE *  CLEAR     75  72  88 NE5       30.05S
OTTUMWA        MOCLDY    79  66  64 N5        30.02S HX  81
WASHINGTON *   CLEAR     72  64  78 N5        30.05S
$$

ABBREVIATIONS USED IN REMARKS
   TC - TEMPERATURES IN CELSIUS
  WCI - WIND CHILL INDEX
   HX - HEAT INDEX
  VSB - VISIBILITY
$$




USA.gov is the U.S. government's official web portal to all federal, state and local government web resources and services.